Weather History for Russellville, AR

Change the Weather History Date:

Monday, August 19, 2013

  Actual Average (KHOT) Record (KHOT)
Temperature  
Mean Temperature 74 °F -  
Max Temperature 89 °F 93 °F 104 °F (1954)
Min Temperature 62 °F 68 °F 59 °F (1992)
Cooling Degree Days 10    
Growing Degree Days 24 (Base 50)    
Moisture  
Dew Point 64 °F    
Average Humidity 74    
Maximum Humidity 94    
Minimum Humidity 43    
Precipitation  
Precipitation 0.00 in - - ()
Sea Level Pressure  
Sea Level Pressure 30.06 in    
Wind  
Wind Speed 0 mph (North)    
Max Wind Speed 5 mph    
Max Gust Speed -    
Visibility 8 miles    
Events      
Averages and records for this station are not official NWS values.
T = Trace of Precipitation, MM = Missing Value Source: NWS Daily Summary

Daily Weather History Graph

Daily Weather History Graph

Search for Another Location

Airport:

Trip Planner

Search our weather history database for the weather conditions in past years. The results will help you decide how hot, cold, wet, or windy it might be!

Date:

Astronomy

Aug. 19, 2013 Rise Set
Actual Time 6:35 AM CDT 7:55 PM CDT
Civil Twilight 6:08 AM CDT 8:22 PM CDT
Nautical Twilight 5:36 AM CDT 8:54 PM CDT
Astronomical Twilight 5:03 AM CDT 9:27 PM CDT
Moon 6:47 PM CDT (8/19) 4:56 AM CDT (8/19)
Length of Visible Light 14h 13m
Length of Day
13h 20m
Waxing Gibbous, 97% of the Moon is Illuminated
Aug 19
Waxing Gibbous
Aug 20
Full
Aug 28
Last Quarter
Sep 5
New
Sep 12
First Quarter

Hourly Weather History & Observations

Time (CDT) Temp. Heat Index Dew Point Humidity Pressure Visibility Wind Dir Wind Speed Gust Speed Precip Events Conditions
12:53 AM 66.9 °F - 63.0 °F 87% 30.07 in 8.0 mi Calm Calm - N/A   Clear
1:53 AM 66.0 °F - 63.0 °F 90% 30.08 in 6.0 mi Calm Calm - N/A   Clear
2:53 AM 64.9 °F - 63.0 °F 93% 30.07 in 5.0 mi Calm Calm - N/A   Clear
3:53 AM 64.0 °F - 62.1 °F 93% 30.07 in 5.0 mi Calm Calm - N/A   Clear
4:53 AM 63.0 °F - 61.0 °F 93% 30.07 in 5.0 mi Calm Calm - N/A   Clear
5:53 AM 63.0 °F - 61.0 °F 93% 30.08 in 4.0 mi Calm Calm - N/A   Clear
6:45 AM 62.6 °F - 60.8 °F 94% 30.11 in 2.5 mi Calm Calm - N/A   Clear
6:53 AM 63.0 °F - 61.0 °F 93% 30.10 in 2.5 mi Calm Calm - N/A   Clear
7:04 AM 62.6 °F - 60.8 °F 94% 30.12 in 3.0 mi Calm Calm - N/A   Clear
7:53 AM 66.9 °F - 64.0 °F 90% 30.10 in 4.0 mi Calm Calm - N/A   Clear
8:53 AM 73.0 °F - 66.0 °F 79% 30.12 in 7.0 mi Calm Calm - N/A   Clear
9:53 AM 77.0 °F - 66.0 °F 69% 30.11 in 10.0 mi Calm Calm - N/A   Clear
10:53 AM 79.0 °F - 64.9 °F 62% 30.11 in 10.0 mi Variable 3.5 mph - N/A   Partly Cloudy
11:53 AM 82.0 °F 84.5 °F 66.9 °F 60% 30.09 in 10.0 mi Calm Calm - N/A   Partly Cloudy
12:53 PM 82.9 °F 85.0 °F 66.0 °F 56% 30.07 in 10.0 mi SSE 3.5 mph - N/A   Scattered Clouds
1:53 PM 84.0 °F 85.8 °F 64.9 °F 53% 30.06 in 10.0 mi Calm Calm - N/A   Clear
2:53 PM 84.9 °F 86.1 °F 64.0 °F 49% 30.04 in 10.0 mi Calm Calm - N/A   Overcast
3:53 PM 87.1 °F 87.8 °F 63.0 °F 44% 30.02 in 10.0 mi Calm Calm - N/A   Overcast
4:53 PM 87.1 °F 87.5 °F 62.1 °F 43% 30.01 in 10.0 mi Variable 3.5 mph - N/A   Clear
5:53 PM 86.0 °F 87.3 °F 64.0 °F 48% 29.99 in 10.0 mi SSW 4.6 mph - N/A   Partly Cloudy
6:53 PM 86.0 °F 86.3 °F 62.1 °F 44% 29.99 in 10.0 mi Calm Calm - N/A   Overcast
7:53 PM 79.0 °F - 66.0 °F 64% 29.99 in 10.0 mi Calm Calm - N/A   Clear
8:53 PM 75.0 °F - 66.0 °F 73% 30.00 in 10.0 mi Calm Calm - N/A   Partly Cloudy
9:53 PM 72.0 °F - 66.0 °F 81% 30.03 in 10.0 mi Calm Calm - N/A   Clear
10:53 PM 71.1 °F - 66.0 °F 84% 30.03 in 10.0 mi Calm Calm - N/A   Clear
11:53 PM 70.0 °F - 66.0 °F 87% 30.03 in 10.0 mi Calm Calm - N/A   Scattered Clouds